FENGYUN 1C DEB, 37042

Orbit data source: Space-Track

FENGYUN 1C DEB, 37042 is space debris in SSO originally from a launch on Mon, 10 May 1999 UTC launched from the Taiyaun Space Center, China (TSC). Fengyun 1C debris stems from the Chinese weather satellite Fengyun-1C, which was intentionally destroyed by a Chinese anti-satellite missile in 2007. This event dramatically increased the amount of space debris, with thousands of trackable fragments posing hazards to satellites and human spaceflight. The Fengyun 1C debris cloud has become a focal point in discussions about space sustainability and the need for international regulations to prevent the creation of new debris.

Loading next visibility...
Identifier
37042, 1999-025EEA
Orbit
SSO
Country
Flag of CNCN / PRC
Related business
Manufacturer
Unknown
Mission
Spacecraft
Bus & Motor
Unknown
Mass
Unknown
Launch date (UTC)
1999-05-10 (27 years ago)
Launch vehicle
Unknown
Launch site
Taiyaun Space Center, China (TSC)
Object type
Payload
Rocket body
Debris
Shape & HBR
Unknown shape, 0.1 m
Radar Cross Section
Small (<0.1 m²)

Expand to show TLE details & history
Last TLE update: 1 week ago

TLE from 1 week ago
0 FENGYUN 1C DEB
1 37042U 99025EEA 26250.66677415  .00013317  00000-0  15453-2 0  9993
2 37042  98.6067  34.5775 0044264 254.1216 105.5116 14.84841933767774
Epoch: 2026-09-07T16:00Z
TLE epoch observation values (Epoch: 2026-09-07T16:00:09.286Z)
Latitude
0.00004°
Longitude
167.79454°
Altitude
625.494 km
Speed
7.541 km/s
True Right ascension
02h 18m 18s
True Declination
0° 00' 00"
Sunlit
Object was in full shadow at epoch
Visualization orbit readout
Latitude
Unknown
Longitude
Unknown
Altitude
Unknown
Speed
Unknown
Apparent Right ascension
Unknown
Apparent Declination
Unknown
Sunlit
N/A
Visualization observer readout
Local Sidereal Time
20:40:08
Azimuth
Unknown
Elevation
Unknown
Doppler factor
Unknown
Orbital elements
Apogee altitude
642.087 km
Perigee altitude
580.212 km
Semi-major axis
6,989.286 km
Eccentricity
0.00443
Inclination
98.6067°
RAAN
34.5775°
Arg. of periapsis
254.1216°
True anomaly
105.99962°
Mean anomaly
105.5116°
Eccentric anomaly
105.75569°
Mean motion
3.71444 °/min
Orbital period
96.92 mins
BSTAR
0.0015453
Loading maneuver chart data...
Computing Atmospheric mass density...

Documentation

Showing up to 5 results
|